Tracking 34138 objects as of 15-May-2026
HD Live streaming from Space Station
objects crossing your sky now

STARLINK-37180

Track STARLINK-37180 now!
10-day predictions
STARLINK-37180 is classified as:


NORAD ID: 68333
Int'l Code: 2026-059N
Perigee: 425.0 km
Apogee: 426.5 km
Inclination: 53.2 °
Period: 92.9 minutes
Semi major axis: 6796 km
RCS: Unknown
Launch date: March 22, 2026
Source: United States (US)
Launch site: AIR FORCE EASTERN TEST RANGE (AFETR)
Your satellite tracking list
Your tracking list is empty




NASA's NSSDC Master Catalog

Two Line Element Set (TLE):
1 68333U 26059N   26135.04150001  .00042126  00000-0  76035-3 0  9992
2 68333  53.1600  38.0092 0001131  75.3586 284.7548 15.49348586  8360
Source of the keplerian elements: AFSPC